Regional Weather Roundup
Issued by NWS

Home | Current Version | Previous Version | Graphics & Text | Print | Product List | Glossary On
Versions: 1 2 3 4 5 6 7 8 9 10 11 12 13 14 15 16 17 18 19 20 21 22 23 24 25 26 27 28 29 30 31 32 33 34 35 36 37 38 39 40 41 42 43 44 45 46 47 48 49 50
000
ASUS43 KTOP 031759
RWRKS

WEATHER ROUNDUP FOR KANSAS
NATIONAL WEATHER SERVICE GOODLAND KS
100 PM CDT FRI JUL 03 2015

NOTE:  "FAIR" INDICATES FEW OR NO CLOUDS BELOW 12,000 FEET WITH NO
SIGNIFICANT WEATHER AND/OR OBSTRUCTIONS TO VISIBILITY.

KSZ001>006-013>018-027>032-041>047-031900-
NORTHWEST KANSAS

CITY           SKY/WX    TMP DP  RH WIND       PRES   REMARKS
GOODLAND       MOSUNNY   81  56  42 VRB6      30.09F
6HR MIN TEMP:  61; 6HR MAX TEMP:  82;

HAYS           MOSUNNY   79  61  53 NE14      30.04F
HILL CITY      MOSUNNY   80  62  54 NE8       30.06F
6HR MIN TEMP:  64; 6HR MAX TEMP:  80;

RUSSELL        PTSUNNY   80  62  54 N10       30.02F
6HR MIN TEMP:  64; 6HR MAX TEMP:  80;

$$

KSZ061>065-074>080-084>089-031900-
SOUTHWEST KANSAS

CITY           SKY/WX    TMP DP  RH WIND       PRES   REMARKS
DODGE CITY     MOSUNNY   82  59  45 NE8       30.05S
6HR MIN TEMP:  67; 6HR MAX TEMP:  83;

ELKHART          N/A     89  57  33 SE8         N/A
GARDEN CITY    SUNNY     83  59  44 CALM      30.05F
6HR MIN TEMP:  66; 6HR MAX TEMP:  83;

GREAT BEND     MOSUNNY   77  63  61 N10       30.04F
LIBERAL        MOSUNNY   84  63  48 N3        30.07F
$$

KSZ066>073-081>083-090>101-031900-
SOUTHEAST KANSAS

CITY           SKY/WX    TMP DP  RH WIND       PRES   REMARKS
CHANUTE        HVY RAIN  76  69  79 VRB6      29.93S
6HR MIN TEMP:  69; 6HR MAX TEMP:  84; 6HR PCP:  0.13;

COFFEYVILLE    MOSUNNY   85  68  56 NW10      29.91F
6HR MIN TEMP:  68; 6HR MAX TEMP:  85;

HUTCHINSON     PTSUNNY   82  65  56 N13       29.99F
6HR MIN TEMP:  68; 6HR MAX TEMP:  82;

MEDICINE LODGE   N/A     88  61  40 N16G24    29.97F
NEWTON         PTSUNNY   77  63  61 N14G20    30.01S
PARSONS        MOSUNNY   85  68  56 W8        29.93S
6HR MIN TEMP:  70; 6HR MAX TEMP:  85;

WICHITA INTL   PTSUNNY   80  66  62 N10       29.98S
6HR MIN TEMP:  70; 6HR MAX TEMP:  81;

WICHITA JABRA  MOSUNNY   80  67  64 VRB6      29.97F
6HR MIN TEMP:  68; 6HR MAX TEMP:  80;

WINFIELD       MOSUNNY   82  66  58 N14       29.98R
6HR MIN TEMP:  67; 6HR MAX TEMP:  85;

$$

KSZ007>012-019>026-033>040-048>060-102>105-031900-
NORTHEAST KANSAS

CITY           SKY/WX    TMP DP  RH WIND       PRES   REMARKS
CONCORDIA      CLOUDY    75  65  70 E9        30.02F
6HR MIN TEMP:  67; 6HR MAX TEMP:  76;

EMPORIA        CLOUDY    73  66  78 N12       29.98S
6HR MIN TEMP:  65; 6HR MAX TEMP:  75;

LAWRENCE       CLOUDY    76  64  66 NE9       29.97S
6HR MIN TEMP:  65; 6HR MAX TEMP:  76; 6HR PCP:  0.05;

MANHATTAN      PTSUNNY   78  65  63 NE8       29.99F
6HR MIN TEMP:  67; 6HR MAX TEMP:  78; 6HR PCP:  0.10;

OLATHE IND     CLOUDY    74  64  71 N8        29.98S
6HR MIN TEMP:  65; 6HR MAX TEMP:  75; 6HR PCP: TRACE;

OLATHE EXE     CLOUDY    74  63  68 N8        29.96F
6HR MIN TEMP:  64; 6HR MAX TEMP:  75; 6HR PCP:  0.07;

SALINA         MOSUNNY   80  64  58 NE12G20   30.00F
6HR MIN TEMP:  69; 6HR MAX TEMP:  81;

TOPEKA BILLARD CLOUDY    77  66  68 N5        29.98S
6HR MIN TEMP:  66; 6HR MAX TEMP:  78; 6HR PCP:  0.05;

TOPEKA FORBES  CLOUDY    76  64  66 N8        29.98S
6HR MIN TEMP:  66; 6HR MAX TEMP:  77; 6HR PCP:  1.32;

$$



USA.gov is the U.S. government's official web portal to all federal, state and local government web resources and services.